N960 KMEM-KLIT

Flight info

Callsign N960
Flight time 0h 31m
Altitude 20000
Route CHLDR5 ANSWA
Aircraft C25C/M-BGS/L

Departure

Time 2026-04-23 23:55
Airport Memphis International Airport (KMEM)

Arrival

Time 2026-04-24 00:27
Airport Bill & Hillary Clinton National Airport/Adams Field (KLIT)
Time Latitude Longitude Altitude Speed Heading
2026-04-23 23:40 35.05443 -89.98112 272 ft 0 kts 91°
2026-04-23 23:51 35.05447 -89.98103 272 ft 7 kts 54°
2026-04-23 23:51 35.05487 -89.98021 273 ft 16 kts 76°
2026-04-23 23:52 35.05483 -89.97858 276 ft 23 kts 97°
2026-04-23 23:52 35.05447 -89.97728 276 ft 0 kts 93°
2026-04-23 23:54 35.05445 -89.97699 276 ft 12 kts 94°
2026-04-23 23:54 35.05437 -89.97653 276 ft 0 kts 115°
2026-04-23 23:55 35.05409 -89.97628 277 ft 15 kts 161°
2026-04-23 23:55 35.05143 -89.97611 277 ft 77 kts 179°
2026-04-23 23:55 35.04342 -89.97593 426 ft 141 kts 178°
2026-04-23 23:55 35.03268 -89.97549 1074 ft 162 kts 179°
2026-04-23 23:56 35.02107 -89.97542 1771 ft 162 kts 179°
2026-04-23 23:56 35.01047 -89.97528 2321 ft 146 kts 179°
2026-04-23 23:56 35.00068 -89.97506 2709 ft 141 kts 179°
2026-04-23 23:56 34.99091 -89.97648 2965 ft 144 kts 198°
2026-04-23 23:57 34.98189 -89.98257 3158 ft 152 kts 210°
2026-04-23 23:57 34.97327 -89.98983 3485 ft 149 kts 212°
2026-04-23 23:57 34.96482 -89.99706 3748 ft 149 kts 212°
2026-04-23 23:57 34.95630 -90.00419 4095 ft 150 kts 210°
2026-04-23 23:58 34.94839 -90.01312 4796 ft 162 kts 233°
2026-04-23 23:58 34.94584 -90.02766 5272 ft 194 kts 266°
2026-04-23 23:58 34.94664 -90.04434 5994 ft 194 kts 267°
2026-04-23 23:58 34.94684 -90.06009 6876 ft 188 kts 266°
2026-04-23 23:59 34.94708 -90.07794 7057 ft 227 kts 266°
2026-04-23 23:59 34.94687 -90.09786 8038 ft 241 kts 263°
2026-04-23 23:59 34.94429 -90.11889 8945 ft 262 kts 257°
2026-04-23 23:59 34.94095 -90.14208 9553 ft 294 kts 259°
2026-04-24 00:00 34.93716 -90.16768 10210 ft 315 kts 259°
2026-04-24 00:00 34.93401 -90.19411 11235 ft 316 kts 264°
2026-04-24 00:00 34.93301 -90.22093 12043 ft 317 kts 268°
2026-04-24 00:00 34.93257 -90.24782 12872 ft 317 kts 268°
2026-04-24 00:01 34.93125 -90.27465 13710 ft 317 kts 266°
2026-04-24 00:01 34.92944 -90.30103 14469 ft 316 kts 266°
2026-04-24 00:01 34.92784 -90.32771 15246 ft 315 kts 266°
2026-04-24 00:01 34.92638 -90.35428 16041 ft 314 kts 267°
2026-04-24 00:02 34.92490 -90.38110 16875 ft 312 kts 266°
2026-04-24 00:02 34.92337 -90.40737 17710 ft 310 kts 266°
2026-04-24 00:02 34.92189 -90.43315 18509 ft 307 kts 266°
2026-04-24 00:02 34.92038 -90.45903 19262 ft 305 kts 267°
2026-04-24 00:03 34.91888 -90.48484 19874 ft 310 kts 266°
2026-04-24 00:03 34.91734 -90.51197 19907 ft 331 kts 266°
2026-04-24 00:03 34.91564 -90.54012 19913 ft 336 kts 266°
2026-04-24 00:03 34.91398 -90.56860 19921 ft 339 kts 266°
2026-04-24 00:04 34.91226 -90.59744 19918 ft 342 kts 266°
2026-04-24 00:04 34.91062 -90.62586 19914 ft 329 kts 266°
2026-04-24 00:04 34.90898 -90.65310 19911 ft 316 kts 266°
2026-04-24 00:04 34.90742 -90.67924 19900 ft 305 kts 266°
2026-04-24 00:05 34.90585 -90.70576 19896 ft 325 kts 266°
2026-04-24 00:05 34.90386 -90.73419 19903 ft 348 kts 262°
2026-04-24 00:05 34.89909 -90.76398 19917 ft 367 kts 260°
2026-04-24 00:05 34.89432 -90.79512 19920 ft 380 kts 261°
2026-04-24 00:06 34.88959 -90.82709 19918 ft 386 kts 261°
2026-04-24 00:06 34.88473 -90.85928 19919 ft 386 kts 260°
2026-04-24 00:06 34.87975 -90.89140 19921 ft 386 kts 260°
2026-04-24 00:06 34.87480 -90.92350 19921 ft 386 kts 260°
2026-04-24 00:07 34.86991 -90.95562 19920 ft 385 kts 260°
2026-04-24 00:07 34.86498 -90.98763 19921 ft 385 kts 260°
2026-04-24 00:07 34.86007 -91.01966 19924 ft 385 kts 260°
2026-04-24 00:07 34.85509 -91.05167 19921 ft 385 kts 260°
2026-04-24 00:08 34.85017 -91.08369 19921 ft 384 kts 260°
2026-04-24 00:08 34.84520 -91.11566 19924 ft 384 kts 260°
2026-04-24 00:08 34.84026 -91.14758 19923 ft 384 kts 260°
2026-04-24 00:08 34.83529 -91.17955 19924 ft 384 kts 260°
2026-04-24 00:09 34.83031 -91.21150 19924 ft 384 kts 260°
2026-04-24 00:09 34.82535 -91.24339 19922 ft 384 kts 260°
2026-04-24 00:09 34.82034 -91.27528 19921 ft 383 kts 260°
2026-04-24 00:09 34.81537 -91.30719 19920 ft 383 kts 260°
2026-04-24 00:10 34.81036 -91.33899 19923 ft 383 kts 260°
2026-04-24 00:10 34.80538 -91.37086 19922 ft 383 kts 260°
2026-04-24 00:10 34.80036 -91.40258 19921 ft 376 kts 260°
2026-04-24 00:10 34.79561 -91.43280 19912 ft 352 kts 260°
2026-04-24 00:11 34.79109 -91.46124 19814 ft 335 kts 260°
2026-04-24 00:11 34.78674 -91.48886 19447 ft 330 kts 260°
2026-04-24 00:11 34.78245 -91.51604 19086 ft 325 kts 261°
2026-04-24 00:11 34.77817 -91.54293 18721 ft 321 kts 260°
2026-04-24 00:12 34.77581 -91.56962 18371 ft 316 kts 277°
2026-04-24 00:12 34.78385 -91.59405 17988 ft 315 kts 306°
2026-04-24 00:12 34.80091 -91.61055 17591 ft 317 kts 334°
2026-04-24 00:12 34.82185 -91.61808 17214 ft 318 kts 345°
2026-04-24 00:13 34.84354 -91.62301 16841 ft 317 kts 348°
2026-04-24 00:13 34.86534 -91.62705 16456 ft 316 kts 349°
2026-04-24 00:13 34.88714 -91.63091 15962 ft 317 kts 349°
2026-04-24 00:13 34.90894 -91.63474 15476 ft 317 kts 349°
2026-04-24 00:14 34.93078 -91.63858 14996 ft 317 kts 349°
2026-04-24 00:14 34.95261 -91.64247 14521 ft 317 kts 349°
2026-04-24 00:14 34.97442 -91.64635 14057 ft 317 kts 349°
2026-04-24 00:14 34.99619 -91.65025 13585 ft 316 kts 349°
2026-04-24 00:15 35.01798 -91.65419 13070 ft 316 kts 349°
2026-04-24 00:15 35.03908 -91.66051 12550 ft 312 kts 332°
2026-04-24 00:15 35.05465 -91.67793 12035 ft 303 kts 301°
2026-04-24 00:15 35.06098 -91.70190 11544 ft 297 kts 277°
2026-04-24 00:16 35.06236 -91.72685 11062 ft 291 kts 271°
2026-04-24 00:16 35.06263 -91.75120 10584 ft 284 kts 269°
2026-04-24 00:16 35.06264 -91.77512 10115 ft 279 kts 269°
2026-04-24 00:16 35.06264 -91.79860 9636 ft 275 kts 269°
2026-04-24 00:17 35.06273 -91.82183 9119 ft 272 kts 269°
2026-04-24 00:17 35.06302 -91.84482 8617 ft 270 kts 269°
2026-04-24 00:17 35.06099 -91.86730 8118 ft 265 kts 253°
2026-04-24 00:17 35.05571 -91.88877 7627 ft 263 kts 250°
2026-04-24 00:18 35.05018 -91.90999 7147 ft 261 kts 249°
2026-04-24 00:18 35.04482 -91.93081 6927 ft 250 kts 249°
2026-04-24 00:18 35.03993 -91.95036 6895 ft 232 kts 250°
2026-04-24 00:18 35.03556 -91.96827 6884 ft 216 kts 249°
2026-04-24 00:19 35.03150 -91.98540 6884 ft 205 kts 250°
2026-04-24 00:19 35.02762 -92.00192 6880 ft 201 kts 250°
2026-04-24 00:19 35.02376 -92.01822 6877 ft 200 kts 249°
2026-04-24 00:19 35.01988 -92.03476 6885 ft 205 kts 250°
2026-04-24 00:20 35.01582 -92.05171 6884 ft 210 kts 249°
2026-04-24 00:20 35.01161 -92.06907 6787 ft 218 kts 246°
2026-04-24 00:20 35.00217 -92.08322 6599 ft 221 kts 214°
2026-04-24 00:20 34.98904 -92.09370 6413 ft 230 kts 211°
2026-04-24 00:21 34.97520 -92.10394 6062 ft 232 kts 210°
2026-04-24 00:21 34.96161 -92.11395 5704 ft 225 kts 209°
2026-04-24 00:21 34.94834 -92.12375 5339 ft 220 kts 210°
2026-04-24 00:21 34.93543 -92.13331 4974 ft 215 kts 210°
2026-04-24 00:22 34.92293 -92.14268 4613 ft 212 kts 210°
2026-04-24 00:22 34.91043 -92.15200 4244 ft 209 kts 210°
2026-04-24 00:22 34.89811 -92.16119 3971 ft 203 kts 210°
2026-04-24 00:22 34.88647 -92.16991 3904 ft 189 kts 210°
2026-04-24 00:23 34.87557 -92.17819 3775 ft 181 kts 210°
2026-04-24 00:23 34.86492 -92.18633 3510 ft 180 kts 209°
2026-04-24 00:23 34.85451 -92.19446 3278 ft 173 kts 209°
2026-04-24 00:23 34.84485 -92.20223 3038 ft 161 kts 210°
2026-04-24 00:24 34.83588 -92.20929 2941 ft 146 kts 210°
2026-04-24 00:24 34.82783 -92.21578 2888 ft 133 kts 209°
2026-04-24 00:24 34.82040 -92.22186 2743 ft 127 kts 208°
2026-04-24 00:24 34.81270 -92.22721 2428 ft 129 kts 202°
2026-04-24 00:25 34.80464 -92.23122 2091 ft 115 kts 195°
2026-04-24 00:25 34.79719 -92.23370 1617 ft 108 kts 192°
2026-04-24 00:25 34.78992 -92.23542 1245 ft 107 kts 187°
2026-04-24 00:25 34.78272 -92.23653 911 ft 107 kts 182°
2026-04-24 00:26 34.77531 -92.23703 797 ft 102 kts 182°
2026-04-24 00:26 34.77049 -92.23699 690 ft 107 kts 181°
2026-04-24 00:26 34.76064 -92.23736 580 ft 109 kts 182°
2026-04-24 00:26 34.75307 -92.23771 589 ft 109 kts 182°
2026-04-24 00:27 34.74543 -92.23797 452 ft 110 kts 183°
2026-04-24 00:27 34.73821 -92.23815 265 ft 95 kts 182°
2026-04-24 00:27 34.73312 -92.23832 261 ft 33 kts 181°
2026-04-24 00:27 34.73246 -92.23835 263 ft 10 kts 182°
2026-04-24 00:28 34.73171 -92.23838 265 ft 23 kts 184°
2026-04-24 00:28 34.73102 -92.23969 264 ft 10 kts 271°
2026-04-24 00:28 34.73113 -92.24052 263 ft 9 kts 315°
2026-04-24 00:28 34.73129 -92.24056 262 ft 0 kts